Flag for Brazil Weather past 2 weeks in Rio de Janeiro, Rio de Janeiro, Brazil

Now
70 °F

Passing clouds.


Feels Like: 70 °F
Forecast: N/A
Wind: 13 mph from South

Location: Rio De Janeiro Airport

Current Time: Aug 28, 2015 at 8:16:39 PM

Latest Report: Aug 28, 2015 at 7:00 PM


Visibility: N/A

Pressure: 30.18 "Hg

Humidity: 88%

Dew point: 66 °F

Location of Rio de JaneiroLocation

Historic Weather in Rio de Janeiro — Graph

°F

Rio de Janeiro temperature yesterday

Maximum temperature yesterday: 86 °F (at 12:00 PM)
Minimum temperature yesterday: 66 °F (at 5:00 AM)
Average temperature yesterday: 73 °F

Past Weeks' High & Low Weather Summary

 TemperatureHumidityPressure
High86 °F (Aug 18, 1:00 PM)100% (Aug 21, 1:00 AM)30.24 "Hg (Aug 21, 1:00 AM)
Low64 °F (Aug 21, 1:00 AM)38% (Aug 18, 1:00 PM)29.80 "Hg (Aug 19, 3:00 PM)
Average72 °F76%30.06 "Hg
* Reported Aug 13 7:00 PM — Aug 28 7:00 PM, Rio de Janeiro, Weather by CustomWeather, © 2015

Note: Actual official high and low records may vary slightly from our data, if they occured in-between our weather recording intervals... More about our weather records

Advertising

Rio de Janeiro weather history for previous 24 hours

 ConditionsComfort  
Time TempWeatherWind HumidityBarometerVisibility
7:00 PM
Fri, Aug 28
70 °FPassing clouds.13 mph88%30.18 "HgN/A
6:00 PM72 °FPassing clouds.15 mph78%30.15 "HgN/A
5:00 PM73 °FPartly cloudy.12 mph74%30.15 "HgN/A
4:00 PM75 °FBroken clouds.12 mph74%30.12 "HgN/A
3:00 PM75 °FBroken clouds.13 mph74%30.12 "HgN/A
2:00 PM79 °FScattered clouds.13 mph61%30.12 "HgN/A
1:00 PM79 °FScattered clouds.10 mph61%30.15 "HgN/A
12:00 PM79 °FScattered clouds.9 mph61%30.18 "HgN/A
11:00 AM81 °FPartly sunny.9 mph51%30.18 "HgN/A
10:00 AM75 °FPartly sunny.8 mph65%30.18 "HgN/A
9:00 AM75 °FPartly sunny.8 mph61%30.18 "HgN/A
8:00 AM73 °FPartly sunny.7 mph61%30.12 "HgN/A
7:00 AM72 °FPartly sunny.8 mph65%30.09 "HgN/A
6:00 AM68 °FPartly sunny.2 mph83%30.07 "HgN/A
5:00 AM70 °FPassing clouds.1 mph78%30.04 "HgN/A
4:00 AM68 °FPassing clouds.1 mph88%30.04 "HgN/A
3:00 AM68 °FClear.2 mph94%30.04 "Hg10 mi
2:00 AM70 °FPassing clouds.1 mph78%30.04 "HgN/A
1:00 AM70 °FPassing clouds.2 mph78%30.04 "HgN/A
12:00 AM70 °FPassing clouds.8 mph83%30.07 "HgN/A
11:00 PM
Thu, Aug 27
70 °FPassing clouds.5 mph83%30.04 "HgN/A
10:00 PM72 °FPassing clouds.7 mph78%29.98 "HgN/A
9:00 PM72 °FPartly cloudy.9 mph73%29.98 "HgN/A
8:00 PM72 °FPartly cloudy.8 mph83%30.01 "HgN/A
Weather by CustomWeather, © 2015

See weather overviewHow to use our weather pages